Regional Weather Roundup
Issued by NWS

Home | Current Version | Previous Version | Text Only | Print | Product List | Glossary On
Versions: 1 2 3 4 5 6 7 8 9 10 11 12 13 14 15 16 17 18 19 20 21 22 23 24 25 26 27 28 29 30 31 32 33 34 35 36 37 38 39 40 41 42 43 44 45 46 47 48 49 50
076
ASUS46 KLOX 262213
RWRCA

SOUTHERN CALIFORNIA WEATHER ROUNDUP
NATIONAL WEATHER SERVICE OXNARD CALIFORNIA
300 PM PDT THU MAY 26 2016

NOTE: "FAIR" INDICATES FEW OR NO CLOUDS BELOW 12,000 FEET WITH NO
SIGNIFICANT WEATHER AND/OR OBSTRUCTIONS TO VISIBILITY.

  -  STATIONS PRECEEDED BY AN ASTERISK (*) ARE NOT NWS OR FAA
     STATIONS AND ARE NOT SUBJECT TO NWS AND FAA QUALITY CONTROL.

CAZ041-042-087-262300-
LA AND ORANGE COUNTY COASTAL AREAS


CITY           SKY/WX    TMP DP  RH WIND       PRES   REMARKS
L.A. DOWNTOWN  SUNNY     70  52  52 VRB6      30.00F
L.A. AIRPORT   MOSUNNY   67  54  63 W15       30.02F
LONG BEACH     SUNNY     68  53  58 SW9       30.01F

CITY           SKY/WX    TMP DP  RH WIND       PRES   REMARKS
AVALON           N/A     68 N/A N/A MISG        N/A
FULLERTON      MOSUNNY   72  52  49 S9        30.00F
*GETTY CENTER    N/A     68  52  56 SW14G20     N/A
HAWTHORNE      SUNNY     69  51  52 W14G21    30.02F
*LEO CARRILLO    N/A     67  54  62 W10         N/A
*LOS ALAMITOS  MOSUNNY   71  54  54 S12       30.01F
*REDONDO BEACH   N/A     70  54  57 SW2       30.02F
SANTA ANA      MOSUNNY   70  52  52 SW9G21    30.01F
STA MONICA APT SUNNY     66  54  65 SW10G18   30.01F
*STA MON PIER    N/A     60  56  85 W15       29.96F
TORRANCE       MOSUNNY   72  55  56 W12       30.02F
*UCLA            N/A     63  50  63 SW13      29.98F

$$

CAZ547-548-048-262300-
LA COUNTY VALLEYS AND INLAND EMPIRE


CITY           SKY/WX    TMP DP  RH WIND       PRES   REMARKS
BURBANK        SUNNY     72  51  47 S12       29.99F
VAN NUYS       SUNNY     75  51  43 S12G20    29.98F

CITY           SKY/WX    TMP DP  RH WIND       PRES   REMARKS
CORONA AIRPORT CLEAR     75  54  47 W15       29.98
*CHATSWORTH      N/A     77  52  40 W3        29.98F
CHINO          MOSUNNY   79  50  36 SW10G17   29.99F
*CLAREMONT       N/A     73  50  44 S9          N/A
MARCH AFB      SUNNY     74  48  40 NW7G17    29.98F
*NORTHRIDGE      N/A     75  48  38 SE6G12      N/A
ONTARIO        MOSUNNY   74  49  41 SW10G18   29.98F
*PASADENA        N/A     75  55  50 E8          N/A
POMONA         SUNNY     73  54  49 W12G18    30.02F
RIVERSIDE      MOSUNNY   75  49  39 VRB7      29.98F
SAN BERNARDINO MOSUNNY   77  45  31 W5        29.99F
*SAN GABRIEL     N/A     72  55  53 SW6       30.05F
*SAN RAFAEL HI   N/A     75  52  44 NE9         N/A
*SAUGUS          N/A     74  49  40 S10         N/A
*WHITEMAN AP   SUNNY     72  50  46 SE6       30.02F
*WHITTIER HILL   N/A     73  54  51 SW8G21      N/A
*WOODLAND HILL   N/A     73  50  43 SE7         N/A

$$

CAZ054-055-262300-
LA AND SAN BERNARDINO COUNTY MOUNTAINS


CITY           SKY/WX    TMP DP  RH WIND       PRES   REMARKS
*ACTON           N/A     77  47  34 SW9         N/A
*BIG BEAR AIRP CLEAR     59  30  33 W7G20     30.13S
*BIG PINES       N/A     59  33  38 SW2         N/A
*CHILAO          N/A     65  45  49 S10         N/A
SANDBERG       SUNNY     68  41  37 N24       30.09F
*WARM SPRINGS    N/A     79  59  50 CALM        N/A

$$

CAZ028-029-059-060-099-262300-
ANTELOPE VALLEY AND SURROUNDING AREAS


CITY           SKY/WX    TMP DP  RH WIND       PRES   REMARKS
LANCASTER      SUNNY     79  39  23 W18G26    29.97F
PALMDALE       MOSUNNY   78  41  26 SW12G23   29.98F
*POPPY PARK      N/A     77  40  26 W14G32      N/A

CITY           SKY/WX    TMP DP  RH WIND       PRES   REMARKS
29 PALMS       MOSUNNY   81  35  19 NW10      29.97F
BARSTOW/DAGGET SUNNY     83  36  18 SW8       29.91F
BISHOP         MOSUNNY   78  30  17 N10       30.00F
CHINA LAKE     PTSUNNY   80  32  17 VRB6      29.92F
EDWARDS AFB    MOSUNNY   81  38  21 S10       29.93F
NEEDLES        SUNNY     92  29  10 N8        29.83F
VICTORVILLE    MOSUNNY   77  34  20 NW5       29.98F

$$

CAZ039-040-262300-
VENTURA AND SANTA BARBARA COUNTY COAST


CITY           SKY/WX    TMP DP  RH WIND       PRES   REMARKS
CAMARILLO      SUNNY     68  51  54 W14       30.02F
OXNARD AIRPORT SUNNY     67  53  61 W18       30.02F
*POINT MUGU    MOSUNNY   67  53  61 SW15      30.04F
SBA APT/GOLETA MOSUNNY   68  52  56 W9        30.00F
*SANTA BARBARA   N/A     75  50  41 CALM      30.07F
*VENTURA         N/A     67  55  65 SW5       29.99F

$$

CAZ044-045-262300-
VENTURA COUNTY VALLEYS


CITY           SKY/WX    TMP DP  RH WIND       PRES   REMARKS
*SIMI VALLEY     N/A     71  55  55 W7        29.96F
*WESTLAKE VILL   N/A     72  56  57 CALM      29.99F
*OJAI            N/A     47  44  91 CALM      29.95F
*FILLMORE        N/A     74  57  54 W3        29.89F

$$

CAZ053-262300-
VENTURA COUNTY MOUNTAINS


CITY           SKY/WX    TMP DP  RH WIND       PRES   REMARKS
*ROSE VALLEY     N/A     72  52  49 MISG        N/A

$$

CAZ034-035-036-262300-
CENTRAL COAST AND SANTA YNEZ VALLEY


CITY           SKY/WX    TMP DP  RH WIND       PRES   REMARKS
SAN LUIS OBISP SUNNY     68  51  54 NW20      30.07S
SANTA MARIA    MOSUNNY   65  51  60 NW21G31   30.08S

CITY           SKY/WX    TMP DP  RH WIND       PRES   REMARKS
*CAL POLY SLO    N/A     66  54  63 SW9         N/A
*LOMPOC        SUNNY     65  50  58 W20G26    30.08F
*PISMO BEACH     N/A     58  53  83 SW17      30.07F
*SANTA YNEZ    FAIR      72  46  40 W17       30.03S

$$

CAZ037-038-051-262300-
SAN LUIS OBISPO COUNTY INTERIOR AND CUYAMA VALLEY


CITY           SKY/WX    TMP DP  RH WIND       PRES   REMARKS
*CUYAMA          N/A     74  48  40 NE12      29.96F
PASO ROBLES    SUNNY     80  48  32 SW16      30.01F

$$

CAZ032-033-061-262300-
SOUTHERN DESERTS


CITY           SKY/WX    TMP DP  RH WIND       PRES   REMARKS
BLYTHE         SUNNY     88  38  17 S10G17    29.84F
IMPERIAL       SUNNY     90  35  14 NE8       29.84F
PALM SPRINGS   NOT AVBL
THERMAL        SUNNY     92  38  15 SE8       29.81F

$$

ELSEWHERE ACROSS THE WESTERN UNITED STATES AND MEXICO


CITY           SKY/WX    TMP DP  RH WIND       PRES   REMARKS
DEATH VALLEY,    N/A     94  37  14 NE6         N/A
DENVER, CO     TSTM      46  41  82 E9        29.91R
GRAND CANYON,  CLOUDY    57  28  33 NE12G18   30.05F
HONOLULU, HI   LGT RAIN  79  70  73 CALM      30.09F
KAHULUI, MAUI  MOSUNNY   86  70  58 E10G17    30.07F HX  90
LAKE TAHOE, CA SUNNY     60  29  30 NE9       30.14F
LAS VEGAS, NV  MOSUNNY   82  28  14 W10       29.85F
MAMMOTH LAKES, PTSUNNY   56  30  36 S3        30.16S
MEXICO CITY, M TSTM      57  54  88 NE17      30.29
PHOENIX, AZ    MOSUNNY   84  31  14 VRB6      29.86F
PORTLAND, OR   CLOUDY    59  44  57 N5        30.22S
RENO, NV       MOSUNNY   70  31  23 VRB3      30.06F
SALT LAKE CITY PTSUNNY   70  36  28 N9G20     29.94F
SAN DIEGO, CA  PTSUNNY   68  53  58 W9        30.04F
SAN FRANCISCO, MOSUNNY   68  58  70 W18       30.06F
SAN JOSE, CA   MOSUNNY   77  56  48 W12G18    30.03F
SEATTLE, WA    CLOUDY    59  44  57 SW12      30.18F
TIJUANA, MEX   MOSUNNY   66  50  55 NW8       30.05F

$$

STATION/POSITION TIME  TEMP    WIND        PRES    VSBY  WAVE
                       AIR SEA DIR/SP/G                  HT/PER
                 (UTC) (F)     (DEG/KT/KT) (MB)    (MI)  (FT/S)
POINT ARGUELLO B NOT AVBL
WEST SANTA BARBA 2150   56 53  310/ 21/ 25 1017.2F         6/ 7
POINT CONCEPTION NOT AVBL
EAST SANTA BARBA 2100   58 59  270/ 17/ 21 1017.6F
SANTA MONICA BAY 2150   60 63  260/ 12/ 12 1017.2F         2/ 6



USA.gov is the U.S. government's official web portal to all federal, state and local government web resources and services.